Погода в Тушнолобово

Россия / Тюменская область     56°12′43″N   70°08′16″E
темп.,
°C
ветер,
м/с
пор.,
м/с
влажн.,
%
обл.,
%
осадки,
мм/ч
давл.,
гПа
погр.,
м
3 марта, ср
ср323:00−19ююз489663 0.0 1011135
02:00−19ю499625 0.0 1010157
05:00−18ю5119534 0.0 1009254
08:00−16ююз61293100 0.0 1007364
11:00−14ююз71194100 0.1 1007490
14:00−11ююз71292100 0.7 1006736
17:00−8ююз71291100 0.9 1005745
20:00−8ююз71392100 0.3 1005582
4 марта, чт
чт423:00−7ююз6129399 0.4 1005472
02:00−5ююз51294100 0.3 1003473
05:00−5ююз5129499 0.5 1003475
08:00−5ююз61293100 0.2 1002491
11:00−2ююз61095100 0.4 1000621
14:000ююз61099100 0.8 997724
17:000ююз51094100 1.5 996629
20:00−1юз61196100 0.9 996550
5 марта, пт
пт523:00−4з61388100 2.2 998634
02:00−7зюз7139280 0.1 1000501
05:00−12юз5119267 0.1 1002249
08:00−11ююз6139358 0.0 1002463
11:00−7юз8139078 0.9 1002916
14:00−2юз81393100 0.4 10021111
17:00−2зюз6138497 0.6 1004720
20:00−4юз4119094 0.0 1005318
6 марта, сб
сб623:00−2юз6129697 0.4 1004635
02:00−1ююз71296100 1.3 1002733
05:00−1юз71396100 2.1 1001754
08:00−2ююз81495100 0.5 999719
11:000юз91699100 2.5 9971071
14:00−1зсз91288100 1.2 10001006
17:00−5з81280100 1.3 1005938
20:00−10зюз61391100 0.1 1008563
7 марта, вс
вс723:00−14зюз5109498 0.1 1010229
02:00−16юз469698 0.0 1011107
05:00−15юз349599 0.0 1010116
08:00−13юв1195100 0.5 100890
11:00−10всв2392100 1.2 1006283
14:00−8св3593100 0.7 1004433
17:00−8ссз4694100 1.2 1004435
20:00−13сз349468 0.0 100862